FW6015 Weather Reports


Display with metric or nautical units.
time (UTC)temp
F
wind
direction
speed
MPH
gust
MPH
rain 1hr
in
rain 24hr
in
rain mn
in
humidity
%
barometer
mb
20191118070002 41 26 4.0 4.0 0.00 0.00 0.00 91 1014.2
20191118064002 41 53 4.0 5.0 0.00 0.00 0.00 90 1014.6
20191118062002 41 3 4.0 6.0 0.00 0.00 0.00 89 1014.9
20191118060003 41 44 1.0 2.0 0.00 0.00 0.00 89 1014.9
20191118054003 41 37 3.0 7.0 0.00 0.00 0.00 88 1015.2
20191118052002 42 21 6.0 6.0 0.00 0.00 0.00 88 1015.6
20191118050002 42 11 4.0 4.0 0.00 0.00 0.00 88 1015.6
20191118045003 42 9 4.0 4.0 0.00 0.00 0.00 88 1015.6
20191118043002 42 15 3.0 3.0 0.00 0.00 0.00 87 1015.9
20191118041002 42 36 2.0 5.0 0.00 0.00 0.00 86 1016.3
20191118035002 43 342 4.0 5.0 0.00 0.00 0.00 86 1016.3
20191118033002 43 19 5.0 5.0 0.00 0.00 0.00 85 1016.6
20191118025002 43 117 0.0 5.0 0.00 0.00 0.00 85 1016.9
20191118023003 43 111 2.0 4.0 0.00 0.00 0.00 84 1016.9
20191118021002 44 35 5.0 5.0 0.00 0.00 0.00 83 1016.9
20191118015002 44 25 4.0 4.0 0.00 0.00 0.00 81 1017.3
20191118013002 44 30 4.0 4.0 0.00 0.00 0.00 80 1016.9
20191118011002 45 50 4.0 4.0 0.00 0.00 0.00 80 1017.3
20191118005002 44 31 3.0 3.0 0.00 0.00 0.00 81 1017.3
20191118003003 44 96 1.0 2.0 0.00 0.00 0.00 82 1017.3
20191118001002 44 150 1.0 3.0 0.00 0.00 0.00 82 1017.3
20191117235002 44 59 2.0 3.0 0.00 0.00 0.00 82 1017.6
20191117233002 44 27 3.0 3.0 0.00 0.00 0.00 82 1017.6
20191117231002 44 13 2.0 3.0 0.00 0.00 0.00 81 1017.6
20191117225002 44 29 2.0 3.0 0.00 0.00 0.00 80 1017.6
20191117223002 45 29 4.0 4.0 0.00 0.00 0.00 79 1017.6
20191117221002 46 39 4.0 4.0 0.00 0.00 0.00 77 1017.6
20191117215002 47 29 4.0 6.0 0.00 0.00 0.00 75 1017.6
20191117213003 49 29 4.0 4.0 0.00 0.00 0.00 70 1017.6
20191117211002 50 40 4.0 4.0 0.00 0.00 0.00 67 1017.3
20191117205002 50 17 8.0 8.0 0.00 0.00 0.00 66 1017.6
20191117203003 51 352 5.0 7.0 0.00 0.00 0.00 67 1017.6
20191117201002 52 346 5.0 5.0 0.00 0.00 0.00 62 1017.9
20191117195002 52 75 4.0 7.0 0.00 0.00 0.00 62 1017.9
20191117193502 51 88 2.0 6.0 0.00 0.00 0.00 62 1017.9
20191117191502 51 353 4.0 6.0 0.00 0.00 0.00 64 1018.3
20191117185502 50 165 5.0 5.0 0.00 0.00 0.00 64 1018.3
20191117184001 50 38 5.0 5.0 0.00 0.00 0.00 63 1018.3
20191117182002 51 109 2.0 6.0 0.00 0.00 0.00 63 1019.0
20191117180002 50 157 3.0 3.0 0.00 0.00 0.00 63 1019.3
20191117174002 49 139 3.0 5.0 0.00 0.00 0.00 65 1019.6
20191117172003 47 43 4.0 5.0 0.00 0.00 0.00 67 1020.3
20191117170003 47 348 2.0 5.0 0.00 0.00 0.00 66 1020.7
20191117164002 47 34 5.0 6.0 0.00 0.00 0.00 66 1021.3
20191117162002 46 355 7.0 7.0 0.00 0.00 0.00 66 1022.0
20191117160002 46 139 3.0 4.0 0.00 0.00 0.00 66 1021.7
20191117154502 44 34 6.0 6.0 0.00 0.00 0.00 68 1022.0
20191117152502 44 67 3.0 7.0 0.00 0.00 0.00 68 1022.4
20191117150502 42 17 6.0 6.0 0.00 0.00 0.00 69 1022.4
20191117144502 42 9 7.0 7.0 0.00 0.00 0.00 69 1022.4
20191117142502 41 52 5.0 9.0 0.00 0.00 0.00 70 1023.0
20191117140502 40 81 3.0 4.0 0.00 0.00 0.00 72 1022.7
20191117134502 39 31 2.0 6.0 0.00 0.00 0.00 73 1023.0
20191117132502 39 21 4.0 6.0 0.00 0.00 0.00 73 1022.7
20191117130502 38 148 4.0 4.0 0.00 0.00 0.00 74 1022.7
20191117124502 37 20 5.0 5.0 0.00 0.00 0.00 74 1022.0
20191117122502 37 15 2.0 8.0 0.00 0.00 0.00 73 1022.4
20191117120502 37 13 4.0 6.0 0.00 0.00 0.00 72 1022.4
20191117115002 37 19 9.0 9.0 0.00 0.00 0.00 72 1022.4
20191117113002 37 14 4.0 5.0 0.00 0.00 0.00 72 1022.0
20191117111002 37 332 5.0 6.0 0.00 0.00 0.00 71 1022.0
20191117105502 37 30 3.0 8.0 0.00 0.00 0.00 70 1022.4
20191117103502 38 49 5.0 6.0 0.00 0.00 0.00 69 1022.7
20191117101503 38 352 6.0 7.0 0.00 0.00 0.00 68 1022.4
20191117095502 38 25 5.0 10.0 0.00 0.00 0.00 68 1022.4
20191117093502 38 34 7.0 7.0 0.00 0.00 0.00 67 1022.4
20191117091509 38 69 7.0 7.0 0.00 0.00 0.00 67 1022.4
20191117085502 38 29 11.0 11.0 0.00 0.00 0.00 66 1022.7
20191117083502 38 7 7.0 7.0 0.00 0.00 0.00 66 1022.4
20191117081502 38 352 9.0 9.0 0.00 0.00 0.00 64 1022.7
20191117075502 38 35 4.0 6.0 0.00 0.00 0.00 64 1022.7
20191117073502 38 26 6.0 6.0 0.00 0.00 0.00 63 1022.7
20191117071503 38 85 4.0 5.0 0.00 0.00 0.00 62 1022.7